Elkins, WV

2:31 AM EDT on June 23, 2017 (GMT -0400)
Elkins-Randolph County

Weather History for KEKN - October, 2010

Change the Weather History Date:

Sunday, October 24, 2010

  Actual Average Record
Temperature  
Mean Temperature 57 °F 49 °F  
Max Temperature 76 °F 62 °F 82 °F (1920)
Min Temperature 38 °F 36 °F 13 °F (1969)
Degree Days  
Heating Degree Days 8 16  
Month to date heating degree days 320 308  
Since 1 July heating degree days 425 468  
Cooling Degree Days 0 0  
Month to date cooling degree days 0 0  
Year to date cooling degree days 715 471  
Growing Degree Days 7 (Base 50)    
Moisture  
Dew Point 43 °F    
Average Humidity 66    
Maximum Humidity 100    
Minimum Humidity 31    
Precipitation  
Precipitation 0.00 in 0.09 in 1.62 in (2007)
Month to date precipitation 1.98 2.17  
Year to date precipitation 33.72 38.61  
Snow  
Snow 0.00 in - - ()
Month to date snowfall 0.0  
Since 1 September snowfall 0.0  
Snow Depth 0.00 in    
Sea Level Pressure  
Sea Level Pressure 30.14 in    
Wind  
Wind Speed 1 mph (West)    
Max Wind Speed 13 mph    
Max Gust Speed 16 mph    
Visibility 10 miles    
Events      
T = Trace of Precipitation, MM = Missing Value Source: NWS Daily Summary

Daily Weather History Graph

Daily Weather History Graph

Search for Another Location

Airport or City:

Trip Planner

Search our weather history database for the weather conditions in past years. The results will help you decide how hot, cold, wet, or windy it might be!

Date:

Astronomy

Oct. 24, 2010 Rise Set
Actual Time 7:38 AM EDT 6:28 PM EDT
Civil Twilight 7:10 AM EDT 6:55 PM EDT
Nautical Twilight 6:39 AM EDT 7:26 PM EDT
Astronomical Twilight 6:08 AM EDT 7:57 PM EDT
Moon 7:11 PM EDT (10/24) 9:16 AM EDT (10/24)
Length of Visible Light 11h 45m
Length of Day
10h 50m
Full, 97% of the Moon is Illuminated
Oct 24
Full
Oct 30
Last Quarter
Nov 6
New
Nov 13
First Quarter
Nov 21
Full

Hourly Weather History & Observations

Time (EDT) Temp. Dew Point Humidity Pressure Visibility Wind Dir Wind Speed Gust Speed Precip Events Conditions
12:51 AM 46.9 °F 43.0 °F 86% 30.21 in 10.0 mi Calm Calm - N/A   Clear
1:51 AM 46.0 °F 43.0 °F 89% 30.20 in 10.0 mi Calm Calm - N/A   Clear
2:51 AM 46.0 °F 42.1 °F 86% 30.20 in 10.0 mi Calm Calm - N/A   Clear
3:51 AM 43.0 °F 39.9 °F 89% 30.20 in 10.0 mi Calm Calm - N/A   Clear
4:51 AM 39.9 °F 37.9 °F 93% 30.20 in 10.0 mi Calm Calm - N/A   Clear
5:51 AM 39.0 °F 37.9 °F 96% 30.22 in 10.0 mi Calm Calm - N/A   Clear
6:51 AM 39.0 °F 37.9 °F 96% 30.25 in 10.0 mi Calm Calm - N/A   Clear
7:51 AM 39.9 °F 39.0 °F 97% 30.25 in 10.0 mi Calm Calm - N/A   Partly Cloudy
8:51 AM 48.0 °F 44.1 °F 86% 30.25 in 10.0 mi Calm Calm - N/A   Clear
9:51 AM 51.1 °F 45.0 °F 80% 30.24 in 10.0 mi Calm Calm - N/A   Clear
10:51 AM 57.9 °F 46.9 °F 67% 30.22 in 10.0 mi Calm Calm - N/A   Clear
11:51 AM 68.0 °F 43.0 °F 40% 30.19 in 10.0 mi Variable 4.6 mph - N/A   Clear
12:51 PM 73.0 °F 43.0 °F 34% 30.15 in 10.0 mi Variable 5.8 mph - N/A   Clear
1:51 PM 73.9 °F 44.1 °F 34% 30.11 in 10.0 mi WNW 8.1 mph - N/A   Clear
2:51 PM 73.9 °F 44.1 °F 34% 30.08 in 10.0 mi West 10.4 mph - N/A   Clear
3:51 PM 73.9 °F 42.1 °F 32% 30.06 in 10.0 mi Calm Calm - N/A   Clear
4:51 PM 75.0 °F 43.0 °F 32% 30.04 in 10.0 mi Calm Calm - N/A   Clear
5:51 PM 73.0 °F 44.1 °F 35% 30.03 in 10.0 mi Calm Calm - N/A   Clear
6:51 PM 57.0 °F 46.0 °F 67% 30.04 in 10.0 mi Calm Calm - N/A   Clear
7:51 PM 53.1 °F 45.0 °F 74% 30.06 in 10.0 mi Calm Calm - N/A   Clear
8:51 PM 50.0 °F 44.1 °F 80% 30.06 in 10.0 mi Calm Calm - N/A   Clear
9:51 PM 48.0 °F 44.1 °F 86% 30.06 in 10.0 mi Calm Calm - N/A   Clear
10:51 PM 46.9 °F 43.0 °F 86% 30.05 in 10.0 mi Calm Calm - N/A   Clear
11:51 PM 45.0 °F 42.1 °F 90% 30.03 in 10.0 mi Calm Calm - N/A   Clear